Погода Запорожье

Погода Запорожье : погода сейчас, прогноз погоды и архив. Всё, что Вы хотите узнать о погоде Запорожье!

Хотите узнать прогноз погоды в Запорожье? Тогда Вам сюда: Погода в Запорожье

Поиск расширенной информации на нашем сайте:

Другие новости

Новости СМИ2

Главная страница сайта

Новости сайта

03.07.2017

Напоминаем, что на нашем специализированном сайте Метеоцентр.Азия вы можете получить высокодетализированные автоматические прогнозы погоды по пунктам России, СНГ и мира в авиационном формате (включающие направление и скорость ветра, видимость, явления погоды, количество и форму облачности, нижнюю и верхнюю границу облачности).


Погода Запорожье - сегодня

Время (UTC), дата Ветер
(°,м/с) 
Видим.   Явления Облачность Т
(°С)
Тd
(°С)
f(%) Тe
(°С)
Pmin
(гПа)
dP
(гПа)
Po
(мм)
O2
(г/м3)
Тmin Tmax R s Состояние
почвы
15 20.04.18 340 (С) 10 км    8/8 1080 м 
[Sc]
+16.7 +2 37 +16  1012.1  749  284        697  мокрый или
старый снег
50-90% 
18 20.04.18 330 (СЗ) 10 км    6/0 средняя 
[Ac trans]
+11.2 +2.8 56 +11  1014.7  2.3  751  290    +18       
21 20.04.18 300 (СЗ) 10 км    5/0 средняя 
[Ac trans]
+7.6 +2.5 70 +6  1016.2  1.3  752  294        <0.5   
00 21.04.18 290 (З) 10 км    ясно 
+5.4 +2.1 79 +4  1016.4  0.1             
03 21.04.18 290 (З) 10 км    ясно 
+2.7 +1.2 90 +1    0.5             
06 21.04.18 310 (СЗ) 10 км    ясно 
+13.3 +3.9 53 +14  1016.6  0.1  752  289  +2.3         
09 21.04.18 270 (З) 10 км    ясно 
+17.7 +2.1 35 +18  1015.2  -1.2  752  284           
12 21.04.18 250 (З) 10 км    ясно 
+20.1 +2.5 31 +20  1012.7  -2.4  750  281           
15 21.04.18 210 (ЮЗ) 10 км    ясно 
+18.9 +3.1 35 +19  1009.6  -3.1  747  281           
18 21.04.18 210 (ЮЗ) 10 км    ясно 
+15.7 +5 49 +16  1008.3  -1.4  746  284    +20.3       
21 21.04.18 220 (ЮЗ) 10 км    4/0 средняя 
[Ac trans]
+13.4 +5.3 58 +12  1006.4  -2  745  285           
00 22.04.18 230 (ЮЗ) 10 км    ясно 
+12.6 +6.2 65 +12  1004.6  -1.8  744  285           
03 22.04.18 280 (З) 10 км    ясно 
+10.8 +5.3 69 +10  1005.5  0.8  744  288           
06 22.04.18 330 (СЗ) 10 км    ясно 
+15.4 +3.2 44 +15  1007.3  746  284  +10.7         
09 22.04.18 290 (З) 10  10 км    ясно 
+17.9 +1.4 33 +17  1007.6  0.4  746  282           
12 22.04.18 310 (СЗ) 10 км    ясно 
+18.7 +0.3 29 +18  1007.1  -0.5  746  281           
15 22.04.18 300 (СЗ) 10 км    5/5 1500 м 
[Sc]
+16.9 +0.1 32 +16  1007.8  0.7  746  283           
18 22.04.18 250 (З) 10 км    4/0 средняя 
[Ac trans]
+11 +0.1 47 +11  1009.4  1.3  747  289    +19       
21 22.04.18 280 (З) 10 км    4/0 средняя 
[Ac trans]
+8.8 +0.7 57 +9  1010.8  1.2  748  292           
00 23.04.18 300 (СЗ) 10 км    3/0 средняя 
[Ac trans]
+7.1 +2 70 +6  1011.4  0.6  748  294           
03 23.04.18 300 (СЗ) 10 км    6/0 средняя 
[Ac trans]
+8 +3.1 71 +7  1011.5  0.1  749  293           
06 23.04.18 330 (СЗ) 10 км    3/0 средняя 
[Ac trans]
+12.4 +3.9 56 +12  1012.5  1.2  749  288  +6.3         
09 23.04.18 300 (СЗ) 10 км    6/6 1500 м 
[Cu med, cong]
+14.8 +2.7 44 +14  1013.1  0.7  750  286           
12 23.04.18 300 (СЗ) 10 км    6/6 1500 м 
[Cu hum]
+16.4 +1.3 36 +16  1013.3  0.3  750  285           
15 23.04.18 340 (С) 10 км    5/5 1500 м 
[Cu hum]
+15.5 +0.9 37 +15  1013.5  0.1  750  286           
Время (UTC), дата Ветер
(°,м/с) 
Видим.   Явления Облачность Т
(°С)
Тd
(°С)
f(%) Тe
(°С)
Pmin
(гПа)
dP
(гПа)
Po
(мм)
O2
(г/м3)
Тmin Tmax R s Состояние
почвы

Для получения пояснительной информации подведите курсор к названию столбца.

ПОГОДА Запорожье - архив

Всё, что Вы хотите узнать о погоде Запорожье - удобно и подробно!

Выберите нужную дату (начиная с 1 января 2015* года) и нажмите кнопку "Найти".
Будут отображены архивные сводки погоды по пункту Запорожье, начиная с указанной даты.


Отображать данные в формате CSV (для использования в таблицах Excel)


Внимание! Наш архив погоды предназначен исключительно для личного некоммерческого использования в познавательных целях. Если Вам необходимы официальные справки о состоянии погоды (для производственных, юридических, коммерческих и т.п. целей), обращайтесь в органы Росгидромета.

*Примечание: данная дата относится к архиву по метеостанциям СССР (Россия, СНГ, Балтия).
Архив по метеостанциям Зарубежной Европы и Азии (кроме Китая) хранится 10 дней, по другим регионам земного шара (Китай, Африка, Америка, Австралия, Океания) - 1 день.

Запорожье - район местоположения метеостанции


Название, широта, долгота, высота метеостанции:
Запорожье 47.8°ш. 35°д. 112 м над ур. моря [Украина]

Дополнительная информация

В oтличие oт бoльшинства пoгoдных сайтoв мы публикуем пoдрoбную метеoинфoрмацию в детальнoм прoфессиoнальнoм фoрмате.

Характеристики температуры и влажнoсти вoздуха измеряются на высoте 2 м в тени вдали oт зданий и деревьев.
Скoрoсть ветра измеряется на высoте 10 м (на урoвне рoста челoвека скoрoсть ветра ниже в 1.5-2 раза). Если метеoстанция нахoдится в гoрoде или в лесу, тo скoрoсть ветра занижена на 2-4 м/с пo сравнению с oткрытым местoм. Скoрoсть ветра над акватoриями крупных рек и oзёр, а также на вершинах хoлмoв на 2-5 м/с выше, чем в oбычных услoвиях.
Атмoсфернoе давление в разных тoчках местнoсти мoжет значительнo oтличаться oт давления на метеoстанции, в зависимoсти oт услoвий рельефа (при пoдъёме на 10 м давление пoнижается примернo на 1 мм рт.ст.).